星链-34046 (STARLINK-34046)

导读 | 豆包AI

STARLINK-34046是由美国于2025年5月16日发射的星链卫星,星链是美国SpaceX公司打造的低轨卫星互联网星座,旨在为全球提供高速低延迟互联网服务,该卫星是星链星座扩容计划中的一员,进一步补充了星座覆盖密度,助力提升星座整体服务能力与覆盖范围。

基本信息
目录编号:
64035
目录名称:
STARLINK-34046
国际标识:
2025-102P
轨道中心:
EARTH
卫星名称:
星链-34046
卫星全名:
星链-34046 (STARLINK-34046)
卫星状态:
在轨 (已飞行302 天)
发射日期:
2025-05-16 UTC
国别 :
美国 (US)
星等 :
--
轨道信息
数据来源 国际轨道数据
星历时间: 2026-03-14T14:26:30+0800
12小时前
查看轨道信息
半长轴: 6950.153km
偏心率: 0.0003486
轨道倾角: 70.002°
近地点辐角 267.176°
升交点赤经 102.970°
平近点角 92.900°
近地点: 569.593km
远地点: 574.439km
周期: 96.106分钟
每日圈数: 14.983432
详细信息
固有亮度:
5
最大亮度:
2.5
卫星平台:
Starlink V1.0
覆盖范围:
全球
运营商:
太空探索技术公司
运营商所在国:
美国
制造商(研发单位):
太空探索技术公司
制造商所在国:
美国
使用方式:
暂无
卫星简介
Starlink 计划是 SpaceX 推出的全球卫星互联网项目,通过发射低轨道卫星,为全球尤其是偏远地区提供高速、低延迟的互联网服务。自 2019 年起,Starlink 已部署数千颗卫星,旨在缩小全球数字鸿沟,推动互联网普及。该项目还为军事、航空等行业提供通信支持,带来广泛经济效益。
2D轨道图
3D轨道图
轨道高度分析图
轨道倾角分析图
轨道综合分析图
查看轨道综合分析图